Location: Casteau
(50.5142°N, 4.0161°E)
Time: 04:57:13
(UTC+00:00)

MOS 1 - Pass Details

Date: 18 September 2020
Orbit: 878 x 891 km, 99.1° (Epoch: 27 October)

Event Time Altitude Azimuth Distance (km) Brightness Sun altitude
Exits shadow 19:23:23 - 162° (SSE) 2,777 6.5 -15.2°
Reaches altitude 10° 19:23:57 10° 162° (SSE) 2,552 6.3 -15.3°
Maximum altitude 19:29:40 90° 84° (E) 899 4.3 -16.2°
Drops below altitude 10° 19:35:25 10° 344° (NNW) 2,573 7.3 -17.0°
Sets 19:37:50 0° 345° (NNW) 3,517 8.0 -17.4°
